Apalachee Bay - Ochlockonee Bay Weather Center

Moon Phase Calendar



Online Cameras

 


      

Current Conditions in Wakulla
6/16/2021 2:05:36 PM

83°F
Feels Like 85
Clouds
Humidity
60%
Pressure
29.94"
Wind
14.4 mph (SSW)
Dew Point
67°F
UV Index
11/10 (Extreme)
Visibility
6 mi

Hourly Forecast

Date & Time Wed, Jun 16
2:00 PM
Wed, Jun 16
3:00 PM
Wed, Jun 16
4:00 PM
Wed, Jun 16
5:00 PM
Wed, Jun 16
6:00 PM
Wed, Jun 16
7:00 PM
Wed, Jun 16
8:00 PM
Wed, Jun 16
9:00 PM
Wed, Jun 16
10:00 PM
Wed, Jun 16
11:00 PM
Thu, Jun 17
12:00 AM
Thu, Jun 17
1:00 AM
Thu, Jun 17
2:00 AM
Thu, Jun 17
3:00 AM
Thu, Jun 17
4:00 AM
Thu, Jun 17
5:00 AM
Thu, Jun 17
6:00 AM
Thu, Jun 17
7:00 AM
Thu, Jun 17
8:00 AM
Thu, Jun 17
9:00 AM
Thu, Jun 17
10:00 AM
Thu, Jun 17
11:00 AM
Thu, Jun 17
12:00 PM
Thu, Jun 17
1:00 PM
Thu, Jun 17
2:00 PM
Thu, Jun 17
3:00 PM
Thu, Jun 17
4:00 PM
Thu, Jun 17
5:00 PM
Thu, Jun 17
6:00 PM
Thu, Jun 17
7:00 PM
Thu, Jun 17
8:00 PM
Thu, Jun 17
9:00 PM
Thu, Jun 17
10:00 PM
Thu, Jun 17
11:00 PM
Fri, Jun 18
12:00 AM
Fri, Jun 18
1:00 AM
Fri, Jun 18
2:00 AM
Fri, Jun 18
3:00 AM
Fri, Jun 18
4:00 AM
Fri, Jun 18
5:00 AM
Fri, Jun 18
6:00 AM
Fri, Jun 18
7:00 AM
Fri, Jun 18
8:00 AM
Fri, Jun 18
9:00 AM
Fri, Jun 18
10:00 AM
Fri, Jun 18
11:00 AM
Fri, Jun 18
12:00 PM
Fri, Jun 18
1:00 PM
Condition
Clouds

Clouds

Clouds

Clouds

Clouds

Rain

Rain

Rain

Rain

Rain

Rain

Rain

Rain

Clouds

Clouds

Clouds

Clouds

Clouds

Clouds

Clouds

Clouds

Clouds

Clouds

Clouds

Clouds

Clouds

Clouds

Clouds

Clouds

Clouds

Clouds

Clouds

Clouds

Clouds

Clouds

Clouds

Clouds

Clouds

Rain

Rain

Rain

Clouds

Clouds

Rain

Rain

Clouds

Clouds

Clouds
Temperature 83°F83°F83°F84°F83°F81°F81°F80°F79°F79°F79°F79°F79°F78°F77°F76°F76°F77°F78°F79°F82°F84°F84°F84°F83°F83°F83°F83°F82°F82°F81°F81°F80°F80°F80°F79°F79°F79°F78°F78°F78°F79°F80°F80°F82°F83°F83°F83°F
Feels Like 85°F86°F87°F87°F88°F86°F85°F84°F79°F79°F80°F79°F80°F79°F78°F78°F77°F78°F79°F79°F85°F87°F88°F88°F88°F88°F87°F87°F87°F86°F85°F84°F84°F80°F80°F79°F79°F79°F80°F79°F80°F79°F80°F84°F85°F86°F87°F87°F
Cloudiness 100%100%100%100%100%100%100%100%100%100%100%100%100%100%100%100%100%100%100%100%100%99%99%99%99%100%100%100%100%100%100%100%100%100%100%100%100%100%100%100%100%100%100%100%100%100%99%99%
Visibility 6 mi6 mi6 mi6 mi6 mi6 mi6 mi6 mi6 mi6 mi6 mi6 mi6 mi6 mi6 mi6 mi6 mi6 mi6 mi6 mi6 mi6 mi6 mi6 mi6 mi6 mi6 mi6 mi6 mi6 mi6 mi6 mi6 mi6 mi6 mi6 mi6 mi6 mi6 mi6 mi6 mi6 mi6 mi6 mi6 mi6 mi6 mi6 mi
Precipitation 57%30%22%25%18%30%28%23%53%72%69%69%69%32%32%32%28%28%28%0%0%0%0%0%0%7%7%7%7%7%3%0%4%0%0%0%9%50%69%73%70%74%70%60%48%53%38%33%
Humidity 60%61%62%63%68%74%74%76%78%79%79%78%77%79%81%82%82%80%77%73%66%60%59%62%65%65%66%67%68%70%72%73%74%76%77%78%79%79%79%80%76%75%72%71%66%63%62%63%
Dew Point 67°F68°F69°F70°F71°F72°F72°F72°F72°F72°F72°F71°F71°F70°F70°F70°F70°F70°F70°F70°F69°F68°F68°F69°F70°F70°F70°F71°F71°F71°F71°F71°F71°F71°F72°F72°F72°F72°F71°F71°F70°F70°F70°F70°F69°F69°F69°F69°F
Pressure 29.94"29.94"29.94"29.91"29.91"29.91"29.91"29.94"29.94"29.97"29.94"29.94"29.94"29.94"29.94"29.94"29.94"29.94"29.97"29.97"29.97"30"30"30"29.97"29.97"29.97"29.97"29.97"29.97"30"30"30.03"30.03"30.03"30.03"30.03"30.03"30"30.03"30.03"30.03"30.06"30.06"30.06"30.09"30.09"30.09"
Wind Speed 14.4 mph15.7 mph16.5 mph18.3 mph19 mph18.2 mph16.7 mph14.9 mph12.5 mph10.8 mph11.1 mph9.9 mph8.4 mph8.2 mph7.5 mph7 mph6 mph4.9 mph4 mph4.2 mph3.8 mph4.9 mph7.1 mph10.6 mph11.9 mph13.1 mph14.5 mph15.1 mph15.4 mph14.2 mph13.7 mph13 mph12.9 mph12.5 mph13.4 mph13.1 mph11.7 mph10.8 mph8.3 mph7.4 mph7.3 mph5.5 mph4.4 mph5.4 mph6.2 mph8.3 mph10.8 mph12 mph
Wind
Direction
211°
SSW
209°
SSW
210°
SSW
215°
SW
221°
SW
229°
SW
234°
SW
236°
SW
239°
WSW
237°
WSW
244°
WSW
246°
WSW
255°
WSW
275°
W
277°
W
279°
W
278°
W
265°
W
260°
W
249°
WSW
239°
WSW
204°
SSW
180°
S
178°
S
180°
S
182°
S
187°
S
192°
SSW
200°
SSW
203°
SSW
204°
SSW
203°
SSW
207°
SSW
213°
SSW
213°
SSW
215°
SW
220°
SW
218°
SW
219°
SW
216°
SW
222°
SW
222°
SW
211°
SSW
197°
SSW
185°
S
181°
S
171°
S
174°
S

Daily Forecast

Date High Low Precip. Humidity
Today
Jun 16

Rain
84 °F
77 °F
84%
59%
Thursday
Jun 17

Rain
84 °F
76 °F
69%
62%
Friday
Jun 18

Rain
83 °F
78 °F
73%
62%
Saturday
Jun 19

Rain
82 °F
76 °F
100%
77%
Sunday
Jun 20

Rain
83 °F
81 °F
98%
79%
Monday
Jun 21

Rain
81 °F
72 °F
100%
92%
Tuesday
Jun 22

Rain
79 °F
76 °F
100%
88%
Wednesday
Jun 23

Rain
83 °F
76 °F
99%
74%
Thursday
Jun 24

Clear
86 °F
76 °F
27%
55%
Friday
Jun 25

Rain
85 °F
80 °F
39%
66%
Saturday
Jun 26

Rain
86 °F
80 °F
43%
61%
Sunday
Jun 27

Rain
86 °F
80 °F
23%
61%
Monday
Jun 28

Rain
86 °F
80 °F
36%
61%
Tuesday
Jun 29

Clear
86 °F
79 °F
13%
61%
Wednesday
Jun 30

Clear
86 °F
78 °F
7%
63%
Thursday
Jul 1

Rain
89 °F
79 °F
60%
56%

Temperature 8-14 Day Outlook



Precipitation 8-14 Day Outlook




Quick Links
Apalachee Bay - Ochlockonee Bay News
Apalachee Bay - Ochlockonee Bay Photos
Apalachee Bay - Ochlockonee Bay Videos




About Us
Contact Us
Site Map
Search Site
Advertise With Us
   
Apalachee.USGulf.info
THE APALACHEE BAY - OCHLOCKONEE BAY WEBSITE

Copyright 2021, Coastal Town
Privacy    |    Legal